1272672025483,3.17306
1272672085483,3.15712
1272672145483,3.18110
1272672205483,3.16304
1272672265483,3.12259
1272672325483,3.11860
1272672385483,3.15336
1272672445483,3.15376
1272672505483,3.14649
1272672565483,3.13967
1272672625483,3.16153
1272672685483,3.15375
1272672745483,3.16755
1272672805483,3.18727
1272672865483,3.13172
1272672925483,3.15985
1272672985483,3.14295
1272673045483,3.11743
1272673105483,3.12657
1272673165483,3.16921
1272673225483,3.16688
1272673285483,3.14729
1272673345483,3.16496
1272673405483,3.12299
1272673465483,3.15300
1272673525483,3.17185
1272673585483,3.09889
1272673645483,3.16239
1272673705483,3.14065
1272673765483,3.12375
1272673825483,3.16599
1272673885483,3.14707
1272673945483,3.14337
1272674005483,3.14588
1272674065483,3.15558
1272674125483,3.13908
1272674185483,3.12794
1272674245483,3.13360
1272674305483,3.14847
1272674365483,3.16683
1272674425483,3.16364
1272674485483,3.14035
1272674545483,3.15360
1272674605483,3.14252
1272674665483,3.13464
1272674725483,3.11012
1272674785483,3.11753
1272674845483,3.11293
1272674905483,3.11006
1272674965483,3.15669
1272675025483,3.11672
1272675085483,3.10429
1272675145483,3.13412
1272675205483,3.13056
1272675265483,3.08987
1272675325483,3.12317
1272675385483,3.10714
1272675445483,3.15488
1272675505483,3.13040
1272675565483,3.14315
1272675625493,3.13343
1272675685493,3.14466
1272675745493,3.12120
1272675805493,3.13350
1272675865493,3.11454
1272675925493,3.12327
1272675985493,3.08604
1272676045493,3.17216
1272676105493,3.12351
1272676165493,3.10963
1272676225493,3.08652
1272676285493,3.09081
1272676345493,3.11349
1272676405493,3.08794
1272676465493,3.09983
1272676525493,3.13327
1272676585493,3.11012
1272676645493,3.14119
1272676705493,3.13097
1272676765493,3.11692
1272676825493,3.12039
1272676885493,3.09910
1272676945493,3.08388
1272677005493,3.13252
1272677065493,3.12719
1272677125493,3.13593
1272677185493,3.11087
1272677245493,3.12288
1272677305493,3.11122
1272677365493,3.13494
1272677425493,3.11650
1272677485493,3.13904
1272677545493,3.06585
1272677605493,3.11273
1272677665493,3.13126
1272677725493,3.12914
1272677785493,3.16877
1272677845493,3.41815
1272677905493,3.62036
1272677965493,3.72668
1272678025493,3.77023
1272678085493,3.78829
1272678145493,3.60478
1272678205493,3.45589
1272678265493,3.35180
1272678325493,3.28132
1272678385493,3.26290
1272678445493,3.24389
1272678505493,3.21216
1272678565493,3.20384
1272678625493,3.21859
1272678685493,3.19302
1272678745493,3.17600
1272678805493,3.16815
1272678865493,3.15008
1272678925493,3.15410
1272678985493,3.18233
1272679045493,3.13706
1272679105493,3.14746
1272679165493,3.17631
1272679225503,3.12808
1272679285503,3.15125
1272679345503,3.14684
1272679405503,3.15564
1272679465503,3.13554
1272679525503,3.14353
1272679585503,3.14849
1272679645503,3.12584
1272679705503,3.12616
1272679765503,3.14076
1272679825503,3.12189
1272679885503,3.14616
1272679945503,3.13567
1272680005503,3.12986
1272680065503,3.13428
1272680125503,3.11962
1272680185503,3.15920
1272680245503,3.12654
1272680305503,3.13099
1272680365503,3.11823
1272680425503,3.13915
1272680485503,3.14265
1272680545503,3.14705
1272680605503,3.13962
1272680665503,3.14192
1272680725503,3.13035
1272680785503,3.12039
1272680845503,3.17558
1272680905503,3.11430
1272680965503,3.14069
1272681025503,3.14693
1272681085503,3.16854
1272681145503,3.16654
1272681205503,3.14500
1272681265503,3.15400
1272681325503,3.13916
1272681385503,3.14172
1272681445503,3.16421
1272681505503,3.15610
1272681565503,3.17350
1272681625503,3.15869
1272681685503,3.20592
1272681745503,3.15223
1272681805503,3.12854
1272681865503,3.15809
1272681925503,3.16224
1272681985503,3.16537
1272682045503,3.16394
1272682105503,3.15986
1272682165503,3.14373
1272682225503,3.14995
1272682285503,3.16058
1272682345503,3.14755
1272682405503,3.17015
1272682465503,3.13620
1272682525503,3.13419
1272682585503,3.14675
1272682645503,3.17771
1272682705503,3.14485
1272682765503,3.13302
1272682825512,3.13927
1272682885512,3.16186
1272682945512,3.10689
1272683005512,3.11805
1272683065512,3.12895
1272683125512,3.13091
1272683185512,3.14018
1272683245512,3.14321
1272683305512,3.12498
1272683365512,3.12107
1272683425512,3.14180
1272683485512,3.14291
1272683545512,3.14633
1272683605512,3.13512
1272683665512,3.10944
1272683725512,3.13613
1272683785512,3.11526
1272683845512,3.10409
1272683905512,3.10903
1272683965512,3.11762
1272684025512,3.09942
1272684085512,3.10812
1272684145512,3.10747
1272684205512,3.12693
1272684265512,3.10148
1272684325512,3.11539
1272684385512,3.12811
1272684445512,3.11918
1272684505512,3.14019
1272684565512,3.13740
1272684625512,3.11253
1272684685512,3.16231
1272684745512,3.09472
1272684805512,3.10761
1272684865512,3.14791
1272684925512,3.10038
1272684985512,3.12602
1272685045512,3.12608
1272685105512,3.11287
1272685165512,3.14573
1272685225512,3.13886
1272685285512,3.13750
1272685345512,3.12698
1272685405512,3.13252
1272685465512,3.10521
1272685525512,3.12742
1272685585512,3.11877
1272685645512,3.13323
1272685705512,3.13945
1272685765512,3.13775
1272685825512,3.10463
1272685885512,3.10649
1272685945512,3.15327
1272686005512,3.12443
1272686065512,3.14735
1272686125512,3.13107
1272686185512,3.10037
1272686245512,3.12275
1272686305512,3.16658
1272686365512,3.16498
1272686425522,3.11695
1272686485522,3.13473
1272686545522,3.13367
1272686605522,3.15721
1272686665522,3.13484
1272686725522,3.11537
1272686785522,3.15342
1272686845522,3.12026
1272686905522,3.13325
1272686965522,3.13287
1272687025522,3.12667
1272687085522,3.16870
1272687145522,3.15845
1272687205522,3.13178
1272687265522,3.10750
1272687325522,3.14893
1272687385522,3.10743
1272687445522,3.13446
1272687505522,3.14773
1272687565522,3.11982
1272687625522,3.14233
1272687685522,3.12590
1272687745522,3.14202
1272687805522,3.13565
1272687865522,3.12589
1272687925522,3.12209
1272687985522,3.12475
1272688045522,3.13138
1272688105522,3.13130
1272688165522,3.14983
1272688225522,3.13237
1272688285522,3.16300
1272688345522,3.14641
1272688405522,3.15287
1272688465522,3.12601
1272688525522,3.11853
1272688585522,3.12040
1272688645522,3.10922
1272688705522,3.13439
1272688765522,3.11170
1272688825522,3.13726
1272688885522,3.10707
1272688945522,3.13164
1272689005522,3.11413
1272689065522,3.13611
1272689125522,3.10113
1272689185522,3.13633
1272689245522,3.13443
1272689305522,3.14221
1272689365522,3.15927
1272689425522,3.13917
1272689485522,3.15552
1272689545522,3.12030
1272689605522,3.14770
1272689665522,3.12043
1272689725522,3.13845
1272689785522,3.16181
1272689845522,3.13802
1272689905522,3.12830
1272689965522,3.11084
1272690025531,3.13441
1272690085531,3.11028
1272690145531,3.12092
1272690205531,3.13709
1272690265531,3.16131
1272690325531,3.11938
1272690385531,3.13661
1272690445531,3.09820
1272690505531,3.13563
1272690565531,3.12263
1272690625531,3.12790
1272690685531,3.12607
1272690745531,3.13330
1272690805531,3.10923
1272690865531,3.16002
1272690925531,3.11063
1272690985531,3.13942
1272691045531,3.11466
1272691105531,3.13311
1272691165531,3.11941
1272691225531,3.16133
1272691285531,3.15475
1272691345531,3.13943
1272691405531,3.13330
1272691465531,3.15160
1272691525531,3.15364
1272691585531,3.16645
1272691645531,3.12687
1272691705531,3.14945
1272691765531,3.13991
1272691825531,3.12975
1272691885531,3.10995
1272691945531,3.13137
1272692005531,3.12645
1272692065531,3.15849
1272692125531,3.13258
1272692185531,3.10104
1272692245531,3.14899
1272692305531,3.15404
1272692365531,3.14727
1272692425531,3.14974
1272692485531,3.13782
1272692545531,3.14251
1272692605531,3.12588
1272692665531,3.13736
1272692725531,3.13518
1272692785531,3.15958
1272692845531,3.12862
1272692905531,3.13525
1272692965531,3.12226
1272693025531,3.13944
1272693085531,3.13085
1272693145531,3.13466
1272693205531,3.13930
1272693265531,3.11934
1272693325531,3.11778
1272693385531,3.12117
1272693445531,3.13086
1272693505531,3.10827
1272693565531,3.10562
1272693625540,3.15434
1272693685540,3.09110
1272693745540,3.09905
1272693805540,3.14066
1272693865540,3.16268
1272693925540,3.10818
1272693985540,3.14706
1272694045540,3.09888
1272694105540,3.11618
1272694165540,3.11730
1272694225540,3.14341
1272694285540,3.12677
1272694345540,3.14741
1272694405540,3.11433
1272694465540,3.12937
1272694525540,3.09172
1272694585540,3.12082
1272694645540,3.11020
1272694705540,3.12746
1272694765540,3.14418
1272694825540,3.14118
1272694885540,3.15536
1272694945540,3.12621
1272695005540,3.14087
1272695065540,3.13673
1272695125540,3.16780
1272695185540,3.13132
1272695245540,3.14183
1272695305540,3.16185
1272695365540,3.16508
1272695425540,3.16896
1272695485540,3.16297
1272695545540,3.15073
1272695605540,3.10317
1272695665540,3.12626
1272695725540,3.13418
1272695785540,3.17681
1272695845540,3.14965
1272695905540,3.13642
1272695965540,3.12264
1272696025540,3.14847
1272696085540,3.13068
1272696145540,3.13300
1272696205540,3.14486
1272696265540,3.14662
1272696325540,3.16318
1272696385540,3.13358
1272696445540,3.11600
1272696505540,3.14407
1272696565540,3.15822
1272696625540,3.17641
1272696685540,3.14427
1272696745540,3.13679
1272696805540,3.15474
1272696865540,3.11238
1272696925540,3.13917
1272696985540,3.14140
1272697045540,3.15248
1272697105540,3.14573
1272697165540,3.15909
1272697225549,3.14772
1272697285549,3.17907
1272697345549,3.13721
1272697405549,3.12323
1272697465549,3.16478
1272697525549,3.14119
1272697585549,3.12314
1272697645549,3.14271
1272697705549,3.14913
1272697765549,3.14822
1272697825549,3.14468
1272697885549,3.12287
1272697945549,3.12689
1272698005549,3.14378
1272698065549,3.11674
1272698125549,3.14284
1272698185549,3.14672
1272698245549,3.13186
1272698305549,3.15218
1272698365549,3.15451
1272698425549,3.13656
1272698485549,3.13058
1272698545549,3.12119
1272698605549,3.13817
1272698665549,3.14171
1272698725549,3.11589
1272698785549,3.11402
1272698845549,3.14132
1272698905549,3.16668
1272698965549,3.12848
1272699025549,3.16538
1272699085549,3.15037
1272699145549,3.15651
1272699205549,3.14986
1272699265549,3.14383
1272699325549,3.14727
1272699385549,3.15953
1272699445549,3.13177
1272699505549,3.13644
1272699565549,3.12719
1272699625549,3.14891
1272699685549,3.14096
1272699745549,3.15016
1272699805549,3.14083
1272699865549,3.15938
1272699925549,3.13636
1272699985549,3.14236
1272700045549,3.12955
1272700105549,3.12547
1272700165549,3.12570
1272700225549,3.11143
1272700285549,3.16816
1272700345549,3.12001
1272700405549,3.14488
1272700465549,3.15778
1272700525549,3.15630
1272700585549,3.16346
1272700645549,3.15225
1272700705549,3.11362
1272700765549,3.13948
1272700825558,3.13567
1272700885558,3.14530
1272700945558,3.13164
1272701005558,3.11807
1272701065558,3.12535
1272701125558,3.15061
1272701185558,3.12753
1272701245558,3.16817
1272701305558,3.14331
1272701365558,3.12138
1272701425558,3.13814
1272701485558,3.11912
1272701545558,3.14503
1272701605558,3.14434
1272701665558,3.15355
1272701725558,3.10596
1272701785558,3.15376
1272701845558,3.15086
1272701905558,3.12853
1272701965558,3.14761
1272702025558,3.14916
1272702085558,3.14485
1272702145558,3.10781
1272702205558,3.12979
1272702265558,3.12398
1272702325558,3.15702
1272702385558,3.21735
1272702445558,3.13429
1272702505558,3.12155
1272702565558,3.12022
1272702625558,3.14234
1272702685558,3.14367
1272702745558,3.13572
1272702805558,3.13735
1272702865558,3.14749
1272702925558,3.15200
1272702985558,3.12398
1272703045558,3.14558
1272703105558,3.13747
1272703165558,3.14385
1272703225558,3.13523
1272703285558,3.16947
1272703345558,3.13748
1272703405558,3.13238
1272703465558,3.14075
1272703525558,3.16202
1272703585558,3.16084
1272703645558,3.14438
1272703705558,3.15203
1272703765558,3.14904
1272703825558,3.15329
1272703885558,3.14550
1272703945558,3.15433
1272704005558,3.16786
1272704065558,3.15249
1272704125558,3.13598
1272704185558,3.13644
1272704245558,3.17533
1272704305558,3.18192
1272704365558,3.14878
1272704425567,3.15271
1272704485567,3.13787
1272704545567,3.12893
1272704605567,3.17938
1272704665567,3.15494
1272704725567,3.16010
1272704785567,3.15246
1272704845567,3.14880
1272704905567,3.12669
1272704965567,3.17393
1272705025567,3.18650
1272705085567,3.21793
1272705145567,3.15926
1272705205567,3.15865
1272705265567,3.20475
1272705325567,3.15581
1272705385567,3.12929
1272705445567,3.15628
1272705505567,3.16677
1272705565567,3.16451
1272705625567,3.15192
1272705685567,3.16568
1272705745567,3.15045
1272705805567,3.14385
1272705865567,3.14577
1272705925567,3.14770
1272705985567,3.15287
1272706045567,3.16824
1272706105567,3.16519
1272706165567,3.15321
1272706225567,3.17376
1272706285567,3.15841
1272706345567,3.14904
1272706405567,3.15308
1272706465567,3.11292
1272706525567,3.17366
1272706585567,3.14726
1272706645567,3.14774
1272706705567,3.16843
1272706765567,3.17030
1272706825567,3.14564
1272706885567,3.13053
1272706945567,3.18122
1272707005567,3.18391
1272707065567,3.16893
1272707125567,3.17660
1272707185567,3.16725
1272707245567,3.15985
1272707305567,3.16646
1272707365567,3.17161
1272707425567,3.18757
1272707485567,3.16706
1272707545567,3.16004
1272707605567,3.18926
1272707665567,3.19355
1272707725567,3.14884
1272707785567,3.17973
1272707845567,3.18291
1272707905567,3.16168
1272707965567,3.17246
1272708025576,3.17311
1272708085576,3.15922
1272708145576,3.16344
1272708205576,3.14268
1272708265576,3.15548
1272708325576,3.14316
1272708385576,3.13687
1272708445576,3.18193
1272708505576,3.15651
1272708565576,3.15338
1272708625576,3.16947
1272708685576,3.17111
1272708745576,3.17254
1272708805576,3.17727
1272708865576,3.15806
1272708925576,3.16070
1272708985576,3.16052
1272709045576,3.13433
1272709105576,3.15219
1272709165576,3.15861
1272709225576,3.12672
1272709285576,3.16928
1272709345576,3.15727
1272709405576,3.18270
1272709465576,3.15627
1272709525576,3.16906
1272709585576,3.16066
1272709645576,3.15388
1272709705576,3.14441
1272709765576,3.14896
1272709825576,3.16526
1272709885576,3.16944
1272709945576,3.13865
1272710005576,3.15672
1272710065576,3.14981
1272710125576,3.18804
1272710185576,3.15542
1272710245576,3.12688
1272710305576,3.14832
1272710365576,3.15999
1272710425576,3.17110
1272710485576,3.16763
1272710545576,3.17573
1272710605576,3.14512
1272710665576,3.14733
1272710725576,3.17500
1272710785576,3.16914
1272710845576,3.16822
1272710905576,3.18551
1272710965576,3.15548
1272711025576,3.19310
1272711085576,3.15726
1272711145576,3.13527
1272711205576,3.15887
1272711265576,3.17668
1272711325576,3.16288
1272711385576,3.14002
1272711445576,3.14982
1272711505576,3.16300
1272711565576,3.15884
1272711625585,3.13978
1272711685585,3.14881
1272711745585,3.16502
1272711805585,3.15451
1272711865585,3.16113
1272711925586,3.19494
1272711985586,3.14477
1272712045586,3.16846
1272712105586,3.17657
1272712165586,3.15280
1272712225585,3.16269
1272712285586,3.18486
1272712345586,3.17278
1272712405586,3.16521
1272712465586,3.18872
1272712525586,3.17043
1272712585586,3.16282
1272712645586,3.18235
1272712705586,3.17045
1272712765586,3.17492
1272712825586,3.18237
1272712885585,3.18081
1272712945585,3.14246
1272713005585,3.15209
1272713065585,3.15141
1272713125585,3.17528
1272713185585,3.15107
1272713245585,3.17852
1272713305586,3.16178
1272713365586,3.14567
1272713425586,3.15855
1272713485586,3.15857
1272713545586,3.18284
1272713605586,3.16768
1272713665586,3.17692
1272713725586,3.15890
1272713785586,3.14861
1272713845586,3.17600
1272713905586,3.14916
1272713965586,3.18145
1272714025586,3.16423
1272714085586,3.16702
1272714145586,3.17933
1272714205586,3.20017
1272714265585,3.16687
1272714325585,3.13856
1272714385585,3.14737
1272714445585,3.18010
1272714505585,3.15769
1272714565585,3.14111
1272714625586,3.16947
1272714685586,3.16225
1272714745586,3.19577
1272714805586,3.18816
1272714865586,3.16671
1272714925585,3.15108
1272714985586,3.15010
1272715045586,3.14102
1272715105586,3.16702
1272715165586,3.14620
1272715225595,3.17097
1272715285595,3.16057
1272715345595,3.16816
1272715405595,3.16229
1272715465595,3.16214
1272715525595,3.14197
1272715585595,3.16730
1272715645595,3.18329
1272715705595,3.14941
1272715765595,3.14765
1272715825594,3.18741
1272715885594,3.13672
1272715945594,3.16715
1272716005594,3.15397
1272716065594,3.16148
1272716125594,3.15743
1272716185594,3.17025
1272716245595,3.18301
1272716305595,3.18516
1272716365595,3.20795
1272716425595,3.14383
1272716485594,3.16118
1272716545595,3.16040
1272716605595,3.14618
1272716665595,3.17271
1272716725595,3.17778
1272716785595,3.18737
1272716845595,3.18538
1272716905595,3.17563
1272716965595,3.14899
1272717025595,3.16161
1272717085595,3.17789
1272717145594,3.16271
1272717205594,3.14509
1272717265594,3.15450
1272717325594,3.16235
1272717385594,3.19987
1272717445594,3.17455
1272717505594,3.14603
1272717565595,3.14717
1272717625595,3.15250
1272717685595,3.15737
1272717745595,3.13597
1272717805595,3.15553
1272717865594,3.24834
1272717925595,3.17441
1272717985595,3.15909
1272718045595,3.17653
1272718105595,3.17076
1272718165595,3.14071
1272718225595,3.11685
1272718285595,3.15278
1272718345595,3.17235
1272718405595,3.16377
1272718465595,3.14608
1272718525594,3.16363
1272718585594,3.15598
1272718645594,3.15269
1272718705594,3.12780
1272718765594,3.14731
1272718825603,3.19168
1272718885603,3.17003
1272719425603,3.12768
1272719485603,3.18275
1272719545603,3.14307
1272719605603,3.18379
1272719665603,3.17755
1272719725603,3.13353
1272719785603,3.12958
1272719845603,3.16399
1272719905603,3.14579
1272719965603,3.13255
1272720025603,3.15514
1272720085603,3.15673
1272720145603,3.14908
1272720205603,3.19396
1272720265603,3.15138
1272720325603,3.17908
1272720385603,3.17854
1272720445603,3.14150
1272720505603,3.19020
1272720565603,3.20533
1272720625603,3.13806
1272720685603,3.15233
1272720745603,3.15864
1272720805603,3.18054
1272720865603,3.16347
1272720925603,3.12445
1272720985603,3.14193
1272721045603,3.15953
1272721105603,3.12308
1272721165603,3.15506
1272721225603,3.11982
1272721285603,3.16102
1272721345603,3.14806
1272721405603,3.16208
1272721465603,3.13291
1272721525603,3.15945
1272721585603,3.12971
1272721645603,3.15266
1272721705603,3.15049
1272721765603,3.12871
1272721825603,3.14783
1272721885603,3.16845
1272721945603,3.13140
1272722005603,3.14857
1272722065603,3.17010
1272722125603,3.15625
1272722185603,3.14901
1272722245603,3.13357
1272722305603,3.17887
1272722365603,3.15552
1272722425612,3.14454
1272722485612,3.16227
1272722545612,3.14305
1272722605612,3.13377
1272722665612,3.14238
1272722725612,3.15188
1272722785612,3.13321
1272722845612,3.15891
1272722905612,3.13711
1272722965612,3.15631
1272723025612,3.16149
1272723085612,3.14870
1272723145612,3.18561
1272723205612,3.12972
1272723265612,3.12991
1272723325612,3.13295
1272723385612,3.14562
1272723445612,3.14179
1272723505612,3.12985
1272723565612,3.13092
1272723625612,3.13860
1272723685612,3.13033
1272723745612,3.13806
1272723805612,3.16630
1272723865612,3.13823
1272723925612,3.12411
1272723985612,3.13116
1272724045612,3.13475
1272724105612,3.17731
1272724165612,3.11973
1272724225612,3.15257
1272724285612,3.12070
1272724345612,3.14422
1272724405612,3.12807
1272724465612,3.13941
1272724525612,3.13965
1272724585612,3.15382
1272724645612,3.14001
1272724705612,3.13712
1272724765612,3.10794
1272724825612,3.13170
1272724885612,3.13564
1272724945612,3.21392
1272725005612,3.16652
1272725065612,3.12778
1272725125612,3.13757
1272725185612,3.15263
1272725245612,3.15443
1272725305612,3.14937
1272725365612,3.15649
1272725425612,3.15361
1272725485612,3.12369
1272725545612,3.12799
1272725605612,3.12520
1272725665612,3.13709
1272725725612,3.14707
1272725785612,3.12881
1272725845612,3.13936
1272725905612,3.13375
1272725965612,3.12438
1272726025621,3.13659
1272726085621,3.16744
1272726145621,3.14226
1272726205621,3.17396
1272726265621,3.12599
1272726325621,3.15137
1272726385621,3.15526
1272726445621,3.17046
1272726505621,3.14967
1272726565621,3.16400
1272726625621,3.15203
1272726685621,3.14748
1272726745621,3.12959
1272726805621,3.14374
1272726865621,3.13212
1272726925621,3.12956
1272726985621,3.17506
1272727045621,3.16090
1272727105621,3.17329
1272727165621,3.17289
1272727225621,3.17298
1272727285621,3.16206
1272727345621,3.14468
1272727405621,3.12234
1272727465621,3.13359
1272727525621,3.13521
1272727585621,3.15068
1272727645621,3.16550
1272727705621,3.15489
1272727765621,3.14093
1272727825621,3.16144
1272727885621,3.15840
1272727945621,3.15766
1272728005621,3.18026
1272728065621,3.15536
1272728125621,3.16056
1272728185621,3.15932
1272728245621,3.18692
1272728305621,3.15829
1272728365621,3.17805
1272728425621,3.12426
1272728485621,3.17452
1272728545621,3.16933
1272728605621,3.19473
1272728665621,3.13977
1272728725621,3.15204
1272728785621,3.15278
1272728845621,3.17697
1272728905621,3.14986
1272728965621,3.17214
1272729025621,3.19905
1272729085621,3.16952
1272729145621,3.17387
1272729205621,3.19914
1272729265621,3.23703
1272729325621,3.16732
1272729385621,3.14488
1272729445621,3.18436
1272729505621,3.18066
1272729565621,3.16319
1272729625629,3.14975
1272729685629,3.18024
1272729745629,3.20536
1272729805629,3.14481
1272729865630,3.17665
1272729925630,3.14997
1272729985630,3.16753
1272730045629,3.14317
1272730105629,3.16837
1272730165630,3.19858
1272730225630,3.17750
1272730285630,3.17901
1272730345630,3.18713
1272730405630,3.13651
1272730465630,3.14006
1272730525630,3.16360
1272730585630,3.16360
1272730645630,3.19067
1272730705629,3.16977
1272730765629,3.15143
1272730825629,3.17905
1272730885629,3.17545
1272730945629,3.14802
1272731005629,3.19173
1272731065629,3.15871
1272731125629,3.17082
1272731185630,3.14690
1272731245630,3.17471
1272731305630,3.18025
1272731365629,3.15927
1272731425629,3.15396
1272731485629,3.17540
1272731545630,3.17455
1272731605630,3.15183
1272731665630,3.17080
1272731725630,3.17766
1272731785630,3.16487
1272731845630,3.17311
1272731905630,3.17532
1272731965630,3.17808
1272732025630,3.16353
1272732085629,3.18989
1272732145629,3.15157
1272732205629,3.16173
1272732265629,3.16611
1272732325629,3.17332
1272732385629,3.14757
1272732445629,3.17531
1272732505629,3.18104
1272732565630,3.17004
1272732625630,3.16666
1272732685630,3.17666
1272732745629,3.17957
1272732805629,3.16337
1272732865630,3.17212
1272732925630,3.16320
1272732985630,3.15483
1272733045630,3.16083
1272733105630,3.16963
1272733165630,3.16353
1272733225638,3.17117
1272733285638,3.17360
1272733345638,3.14776
1272733405638,3.13142
1272733465638,3.15298
1272733525638,3.19309
1272733585638,3.13426
1272733645638,3.15499
1272733705638,3.17731
1272733765638,3.15342
1272733825638,3.17641
1272733885638,3.15932
1272733945638,3.16981
1272734005638,3.17676
1272734065638,3.18258
1272734125638,3.15923
1272734185638,3.16272
1272734245638,3.15739
1272734305638,3.18531
1272734365638,3.17039
1272734425638,3.16789
1272734485638,3.18567
1272734545638,3.18287
1272734605638,3.15557
1272734665638,3.18513
1272734725638,3.13173
1272734785638,3.16239
1272734845638,3.14645
1272734905638,3.16926
1272734965638,3.17177
1272735025638,3.18164
1272735085638,3.13839
1272735145638,3.17811
1272735205638,3.13078
1272735265638,3.17951
1272735325638,3.16810
1272735385638,3.16696
1272735445638,3.16844
1272735505638,3.16967
1272735565638,3.17024
1272735625638,3.16250
1272735685638,3.20060
1272735745638,3.15117
1272735805638,3.16134
1272735865638,3.16690
1272735925638,3.14662
1272735985638,3.15205
1272736045638,3.16603
1272736105638,3.18033
1272736165638,3.16932
1272736225638,3.16616
1272736285638,3.13673
1272736345638,3.17226
1272736405638,3.17351
1272736465638,3.18111
1272736525638,3.14671
1272736585638,3.17275
1272736645638,3.14594
1272736705638,3.16457
1272736765638,3.15690
1272736825647,3.17332
1272736885647,3.16218
1272736945647,3.14440
1272737005647,3.15249
1272737065647,3.15585
1272737125647,3.15039
1272737185647,3.17333
1272737245647,3.17837
1272737305647,3.14128
1272737365647,3.15246
1272737425647,3.14608
1272737485647,3.14674
1272737545647,3.15875
1272737605647,3.15876
1272737665647,3.16954
1272737725647,3.16375
1272737785647,3.16054
1272737845647,3.15562